Regional Weather Roundup
Issued by NWS Portland, ME

Current Version | Previous Version | Text Only | Print | Product List | Glossary On
Versions: 1 2 3 4 5 6 7 8 9 10 11 12 13 14 15 16 17 18 19 20 21 22 23 24 25 26 27 28 29 30 31 32 33 34 35 36 37 38 39 40 41 42 43 44 45 46 47 48 49 50
000 ASUS41 KGYX 230810 RWRGYX WEATHER ROUNDUP FOR MAINE AND NEW HAMPSHIRE NATIONAL WEATHER SERVICE GRAY ME 400 AM EDT WED AUG 23 2017 MEZ002-005-006-010-012-015-018-020-021-024-026-027-029-230900- MAINE CITY SKY/WX TMP DP RH WIND PRES REMARKS PORTLAND CLOUDY 69 67 93 S9 29.63F SANFORD CLOUDY 69 69 100 SW7 29.66F BAR HARBOR MOCLDY 66 64 93 SW16 29.64S WISCASSET LGT RAIN 70 68 93 SW6 29.63F ROCKLAND LGT RAIN 69 68 96 SW10 29.62F FRYEBURG PTCLDY 70 68 93 VRB3 29.63F LEWISTONAUBURN CLOUDY 69 68 96 S10 29.61F AUGUSTA CLOUDY 68 67 96 VRB7 29.62F WATERVILLE CLOUDY 69 68 96 S6 29.59F BANGOR CLOUDY 71 68 90 S10 29.61R GREENVILLE N/A 67 65 93 SE3 29.58S MILLINOCKET CLOUDY 70 70 100 VRB5 29.57R HOULTON LGT RAIN 72 71 97 SW10 29.52F FOG PRESQUE ISLE CLOUDY 69 67 93 SW8 29.52F FRENCHVILLE CLOUDY 65 63 93 S3 29.49S CARIBOU LGT RAIN 69 66 90 SW8 29.49F $$ NHZ002-005-008-009-011-012-014-230900- NEW HAMPSHIRE CITY SKY/WX TMP DP RH WIND PRES REMARKS PORTSMOUTH CLOUDY 71 70 96 SW3 29.65F ROCHESTER CLOUDY 70 68 93 VRB3 29.65F FOG NASHUA LGT RAIN 73 72 96 W6 29.69R MANCHESTER LGT RAIN 73 68 84 SW8 29.66S CONCORD CLOUDY 70 69 97 S6 29.67S LACONIA PTCLDY 69 66 90 SW8 29.67S PLYMOUTH MOCLDY 67 65 93 NE5 29.65S BERLIN CLOUDY 67 63 87 CALM 29.63S WHITEFIELD PTCLDY 68 63 84 SW3 29.65R JAFFREY MOCLDY 70 69 97 S5 29.72S KEENE N/A N/A N/A N/A MISG N/A LEBANON CLOUDY 70 66 87 S8 29.66S MT WASHINGTON FOG 52 52 100 W47G54 N/A VSB 0 $$ VTZ005-007-008-230900- VERMONT CITY SKY/WX TMP DP RH WIND PRES REMARKS ST JOHNSBURY N/A 68 68 100 MISG 29.61S MONTPELIER MOCLDY 70 63 78 SW9G20 29.68R BURLINGTON PTCLDY 70 67 90 SW7 29.63R $$ MAZ007-012-024-CTZ003-RIZ002-NYZ038-NYZ072-230900- SOUTHERN NEW ENGLAND AND NY CITY SKY/WX TMP DP RH WIND PRES REMARKS BOSTON CLOUDY 75 73 93 SW12 29.68S WORCESTER CLOUDY 71 68 90 W16 29.71F NANTUCKET CLOUDY 71 71 100 S18 29.78F FOG PROVIDENCE CLOUDY 74 72 93 SW10 29.72F HARTFORD CLOUDY 73 71 93 SW6 29.70F ALBANY CLOUDY 69 64 84 W6 29.72S NEW YORK CITY CLOUDY 74 73 97 SW9 29.74F $$ ANZ081-ANZ082-ANZ150-NHZ014-MEZ023>029-230900- COASTAL MARINE OBSERVATIONS STATION/POSITION TIME TEMP WIND PRES WAVE AIR SEA DIR/SP/G HT/PER (UTC) (F) (DEG/KT/KT) (MB) (FT/S) MOUNT DESERT ROC 0800 61 1004.5F MATINICUS ROCK 0700 64 210/ 25/ 26 1004.4F ISLE OF SHOALS 0700 70 210/ 13/ 13 1004.5F JEFFREYS LEDGE 0706 64 N/A 4/ 6 CASHES LEDGE BUO 0750 68 68 1005.1F 8/ 8 GEORGES BANK BUO 0650 70 65 1013.0 5/ 6 $$ .............KEY.............. WCI - WIND CHILL TC - TEMPERATURE IN CELSIUS VSB - VISIBILITY IN MILES HX - HEAT INDEX FAIR- INDICATES FEW OR NO CLOUDS BELOW 12,000 FT, WITH NO SIGNIFICANT WEATHER AND/OR OBSTRUCTIONS TO VISIBILITY.

USA.gov is the U.S. government's official web portal to all federal, state and local government web resources and services.